Regional Weather Roundup
Issued by NWS Charleston, SC

Current Version | Previous Version | Text Only | Print | Product List | Glossary Off
Versions: 1 2 3 4 5 6 7 8 9 10 11 12 13 14 15 16 17 18 19 20 21 22 23 24 25 26 27 28 29 30 31 32 33 34 35 36 37 38 39 40 41 42 43 44 45 46 47 48 49 50
477 ASUS42 KCHS 280128 RWRCHS REGIONAL WEATHER ROUNDUP NATIONAL WEATHER SERVICE CHARLESTON SC 900 PM EDT FRI MAY 27 2016 NOTE: "FAIR" INDICATES FEW OR NO CLOUDS BELOW 12,000 FEET WITH NO SIGNIFICANT WEATHER AND/OR OBSTRUCTIONS TO VISIBILITY. NOT ALL STATIONS ARE QUALITY CONTROLLED. USE DATA WITH CAUTION... ESPECIALLY DEWPOINT OBSERVATIONS. SCZ027-030-031-034>040-042>050-280200- ...SOUTHEAST SOUTH CAROLINA... CITY SKY/WX TMP DP RH WIND PRES REMARKS N CHARLESTON PTCLDY 75 62 64 E7 30.08S WATERFRONT PRK N/A 76 67 73 E8 30.05S MOUNT PLEASANT FAIR 72 64 78 CALM 30.09R JOHNS ISLAND FAIR 73 68 83 NE8 30.08S PINOPOLIS N/A 79 63 57 VRB3 29.99F MONCKS CORNER FAIR 70 57 64 CALM 30.09R SUMMERVILLE FAIR 75 63 64 E3 30.09S BEAUFORT MCAS CLEAR 75 65 70 E6 30.07S BEAUFORT ARPT FAIR 73 64 73 E6 30.07S HILTON HEAD IS CLEAR 75 68 78 NE7 30.08R WALTERBORO CLEAR 73 63 68 E3 30.09R ALLENDALE FAIR 75 61 60 SE3 30.08R ...SOUTHERN MIDLANDS AND PEE DEE... CITY SKY/WX TMP DP RH WIND PRES REMARKS GEORGETOWN MOCLDY 70 63 78 CALM 30.10S KINGSTREE FAIR 72 55 56 E6 30.10R ORANGEBURG CLEAR 76 59 55 SE6 30.08R BARNWELL FAIR 79 64 61 S7 30.09R AIKEN FAIR 75 57 53 E6 30.10S MANNING FAIR 72 59 64 SE3 30.09R COLUMBIA PTCLDY 80 54 40 SE8 30.07R SUMTER CLEAR 76 51 41 SE6 30.06R FLORENCE CLEAR 75 55 49 SE8 30.10R MYRTLE BEACH CLEAR 75 61 60 E9 30.11F N MYRTLE BEACH CLEAR 75 65 70 E7 30.10S $$ GAZ063-065-086>088-099>101-113>116-118-119-134>141-150-280200- ...SOUTHEAST GEORGIA... CITY SKY/WX TMP DP RH WIND PRES REMARKS SAVANNAH ARPT PTCLDY 75 64 68 E9 30.07R HUNTER AAF CLEAR 74 68 80 E7 30.05R FORT STEWART CLEAR 73 65 74 CALM 30.05R STATESBORO CLEAR 75 65 72 SE3 30.08R SYLVANIA CLEAR 75 63 65 CALM 30.09R CLAXTON FAIR 72 65 79 CALM 30.08R ...CSRA...CENTRAL AND FAR SOUTHEAST GEORGIA... CITY SKY/WX TMP DP RH WIND PRES REMARKS THOMSON CLEAR 76 65 69 SE3 30.11R AUGUSTA-BUSH CLEAR 73 61 65 SE6 30.05R AUGUSTA-DANIEL CLEAR 81 59 47 SE5 30.06R SWAINSBORO FAIR 77 59 53 SE6 30.08R VIDALIA CLEAR 73 61 64 SE5 30.07R EASTMAN FAIR 77 58 52 SE5 30.06R HAZLEHURST FAIR 78 63 59 E6 30.05R ALMA CLEAR 76 63 64 E6 30.05R WAYCROSS CLOUDY 75 65 70 E5 30.05S JESUP FAIR 68 63 83 E3 30.07R BAXLEY FAIR 77 64 65 E3 30.06R BRUNSWICK CLEAR 77 70 78 NE3 30.06S SAINT SIMONS CLEAR 76 65 68 E7 30.05R $$ SCZ027-028-034-036>038-045-046-048>050-GAZ119-141-280200- ...LAKE AND SUPPLEMENTAL COASTAL OBSERVATIONS... STATION/POSITION TIME TEMP WIND PRES WAVE SWELL AIR SEA DIR/SP/G HT/PER HT/PER/DIR (UTC) (F) (DEG/KT/KT) (MB) (FT/S) (FT/S/D) WINYAH BAY 0000 76 90/ 9 1018.0S LAKE MURRAY 0000 82 130/ 6/ 10 1016.9R ACE BASIN NERRS 0000 76 80/ 3 1018.0S FORT PULASKI 0100 60/ 13/ 15 1018.5R SAPELO ISLAND 0100 75 60/ 6 1018.0R $$ ANZ835-935-AMZ111-154-330-350-352-354-370-450-454-472-280200- ...C-MAN AND BUOY OBSERVATIONS... STATION/POSITION TIME TEMP WIND PRES WAVE SWELL AIR SEA DIR/SP/G HT/PER HT/PER/DIR (UTC) (F) (DEG/KT/KT) (MB) (FT/S) (FT/S/D) BUOY 41004 0050 76 76 60/ 14/ 14 1017.6S 3/ 8 2/ 8 BUOY 41008 0050 76 77 70/ 14/ 16 1017.4R 4/ 6 2/120/ 7 FOLLY BEACH CMAN 0100 75 70/ 15/ 16 1018.7R CAPERS NEARSHORE 0108 76 77 70/ 14/ 17 1018.4R FRIPP NEARSHORE 0108 76 77 90/ 14/ 17 1017.7R STATION/POSITION TIME TEMP WIND PRES WAVE SWELL AIR SEA DIR/SP/G HT/PER HT/PER/DIR (UTC) (F) (DEG/KT/KT) (MB) (FT/S) (FT/S/D) 5E ST. MARYS GA 0101 78 N/A 4/ 6 FRYING PAN BUOY 0100 77 76 80/ 12/ 14 1018.8F BUOY 41025 0050 76 78 150/ 10/ 12 1020.8S 3/ 8 2/120/ 8 CAPE LOOKOUT NC 0100 74 90/ 6/ 7 1020.2R BUOY 41002 0050 78 77 80/ 21/ 27 1017.1F 6/ 6 3/110/ 9 BUOY 41010 0020 77 78 40/ 14/ 16 1014.9R ST AUGUSTINE FL 0100 77 80 80/ 11/ 12 1017.5R $$

USA.gov is the U.S. government's official web portal to all federal, state and local government web resources and services.